Location: Dana
(41.8364°N, 106.7042°W)
Time: 12:41:14
(UTC+00:00)

Vanguard 2 - All Passes

Search period start: 13 May 2026 00:00
Search period end: 23 May 2026 00:00
Orbit: 553 x 2895 km, 32.9° (Epoch: 13 May)

Date Brightness Start Highest point End Pass type
(mag) Time Alt. Az. Time Alt. Az. Time Alt. Az.
13 May - 05:50:23 10° SE 05:53:56 11° SE 05:57:31 10° ESE visible
13 May - 07:48:51 10° SSW 08:03:05 33° SSE 08:16:36 10° E visible
13 May - 09:56:55 10° SW 10:13:42 54° SSE 10:27:03 10° E visible
13 May - 12:08:17 10° WSW 12:24:28 59° S 12:35:26 10° ESE daylight
13 May - 14:21:07 10° W 14:33:44 40° SSW 14:41:58 10° SE daylight
13 May - 16:36:55 10° WSW 16:40:37 12° SW 16:43:49 10° SSW daylight
14 May - 05:56:51 10° SSE 06:05:01 16° SE 06:13:30 10° ESE visible
14 May - 07:59:26 10° SSW 08:14:25 39° SSE 08:28:40 10° E visible
14 May - 10:08:15 10° WSW 10:25:16 57° S 10:38:46 10° E visible
14 May - 12:19:55 10° W 12:36:02 57° S 12:46:59 10° ESE daylight
14 May - 14:33:00 10° W 14:45:00 35° SSW 14:53:04 10° SSE daylight
15 May - 06:05:43 10° S 06:16:06 21° SE 06:27:07 10° E visible
15 May - 08:10:15 10° SW 08:25:47 44° SSE 08:40:36 10° E visible
15 May - 10:19:41 10° WSW 10:36:51 60° S 10:50:25 10° E visible
15 May - 12:31:36 10° W 12:47:34 55° SSW 12:58:28 10° ESE daylight
15 May - 14:45:01 10° W 14:56:12 29° SW 15:04:01 10° SSE daylight
16 May - 06:15:26 10° S 06:27:13 26° SE 06:39:55 10° E visible
16 May - 08:21:16 10° SW 08:37:12 49° SSE 08:52:25 10° E visible
16 May - 10:31:11 10° WSW 10:48:27 61° S 11:02:04 10° ESE visible
16 May - 12:43:19 10° W 12:59:01 51° SSW 13:09:51 10° SE daylight
16 May - 14:57:13 10° W 15:07:19 24° SW 15:14:41 10° S daylight
17 May - 06:25:39 10° SSW 06:38:21 31° SE 06:52:19 10° E visible
17 May - 08:32:27 10° SW 08:48:39 54° SSE 09:04:10 10° E visible
17 May - 10:42:46 10° WSW 11:00:02 62° S 11:13:40 10° ESE visible
17 May - 12:55:04 10° W 13:10:25 47° SSW 13:21:08 10° SE daylight
17 May - 15:09:44 10° W 15:18:21 20° SW 15:24:59 10° S daylight
18 May - 04:36:08 10° SSE 04:41:04 12° SE 04:46:21 10° ESE visible
18 May - 06:36:11 10° SSW 06:49:32 36° SSE 07:04:27 10° E visible
18 May - 08:43:45 10° WSW 09:00:09 57° SSE 09:15:53 10° E visible
18 May - 10:54:23 10° W 11:11:37 61° S 11:25:13 10° ESE visible
18 May - 13:06:53 10° W 13:21:44 42° SSW 13:32:19 10° SE daylight
18 May - 15:22:53 10° WSW 15:29:19 15° SW 15:34:39 10° SSW daylight
19 May - 04:44:08 10° SSE 04:52:01 17° SE 05:00:58 10° E visible
19 May - 06:46:59 10° SW 07:00:47 42° SSE 07:16:25 10° E visible
19 May - 08:55:09 10° WSW 09:11:42 60° S 09:27:32 10° E visible
19 May - 11:06:02 10° W 11:23:09 59° SSW 11:36:42 10° ESE visible
19 May - 13:18:47 10° W 13:32:57 36° SW 13:43:18 10° SSE daylight
19 May - 15:38:02 10° WSW 15:40:13 11° SW 15:42:17 10° SW daylight
20 May - 04:53:34 10° S 05:02:59 22° SE 05:14:09 10° E visible
20 May - 06:57:58 10° SW 07:12:06 47° SSE 07:28:16 10° E visible
20 May - 09:06:39 10° WSW 09:23:16 62° S 09:39:11 10° E visible
20 May - 11:17:43 10° W 11:34:38 55° SSW 11:48:06 10° SE daylight
20 May - 13:30:50 10° W 13:44:06 31° SW 13:54:05 10° SSE daylight
21 May - 05:03:38 10° S 05:14:00 27° SE 05:26:45 10° E visible
21 May - 07:09:08 10° SW 07:23:27 52° SSE 07:40:01 10° E visible
21 May - 09:18:11 10° WSW 09:34:50 63° S 09:50:47 10° ESE visible
21 May - 11:29:26 10° W 11:46:04 51° SSW 11:59:24 10° SE daylight
21 May - 13:43:05 10° W 13:55:10 26° SW 14:04:35 10° S daylight
22 May - 05:14:06 10° SSW 05:25:04 32° SE 05:39:00 10° E visible
22 May - 07:20:25 10° SW 07:34:54 56° SSE 07:51:44 10° E visible
22 May - 09:29:48 10° W 09:46:25 62° S 10:02:20 10° ESE visible
22 May - 11:41:12 10° W 11:57:26 47° SSW 12:10:36 10° SE daylight
22 May - 13:55:41 10° W 14:06:09 21° SW 14:14:42 10° S daylight
